Year,Month,Day,Hour,Minute,Value (Times are PST for temperature in C)
2017,06,26,00,00,21.10
2017,06,26,00,01,21.10
2017,06,26,00,02,21.00
2017,06,26,00,03,21.00
2017,06,26,00,04,21.00
2017,06,26,00,05,21.00
2017,06,26,00,06,21.00
2017,06,26,00,07,20.90
2017,06,26,00,08,20.90
2017,06,26,00,09,20.90
2017,06,26,00,10,20.90
2017,06,26,00,11,20.90
2017,06,26,00,12,20.90
2017,06,26,00,13,20.90
2017,06,26,00,14,20.90
2017,06,26,00,15,20.90
2017,06,26,00,16,20.90
2017,06,26,00,17,20.80
2017,06,26,00,18,20.80
2017,06,26,00,19,20.80
2017,06,26,00,20,20.80
2017,06,26,00,21,20.80
2017,06,26,00,22,20.90
2017,06,26,00,23,20.90
2017,06,26,00,24,20.90
2017,06,26,00,25,20.90
2017,06,26,00,26,20.90
2017,06,26,00,27,20.90
2017,06,26,00,28,20.90
2017,06,26,00,29,20.90
2017,06,26,00,30,20.90
2017,06,26,00,31,20.90
2017,06,26,00,32,20.90
2017,06,26,00,33,20.90
2017,06,26,00,34,20.90
2017,06,26,00,35,20.90
2017,06,26,00,36,20.80
2017,06,26,00,37,20.80
2017,06,26,00,38,20.80
2017,06,26,00,39,20.80
2017,06,26,00,40,20.70
2017,06,26,00,41,20.70
2017,06,26,00,42,20.80
2017,06,26,00,43,20.80
2017,06,26,00,44,20.80
2017,06,26,00,45,20.80
2017,06,26,00,46,20.80
2017,06,26,00,47,20.80
2017,06,26,00,48,20.80
2017,06,26,00,49,20.80
2017,06,26,00,50,20.80
2017,06,26,00,51,20.80
2017,06,26,00,52,20.80
2017,06,26,00,53,20.80
2017,06,26,00,54,20.80
2017,06,26,00,55,20.80
2017,06,26,00,56,20.70
2017,06,26,00,57,20.70
2017,06,26,00,58,20.70
2017,06,26,00,59,20.70
2017,06,26,01,00,20.70
2017,06,26,01,01,20.70
2017,06,26,01,02,20.70
2017,06,26,01,03,20.80
2017,06,26,01,04,20.80
2017,06,26,01,05,20.80
2017,06,26,01,06,20.80
2017,06,26,01,07,20.80
2017,06,26,01,08,20.80
2017,06,26,01,09,20.80
2017,06,26,01,10,20.80
2017,06,26,01,11,20.80
2017,06,26,01,12,20.80
2017,06,26,01,13,20.80
2017,06,26,01,14,20.70
2017,06,26,01,15,20.70
2017,06,26,01,16,20.70
2017,06,26,01,17,20.70
2017,06,26,01,18,20.60
2017,06,26,01,19,20.60
2017,06,26,01,20,20.60
2017,06,26,01,21,20.60
2017,06,26,01,22,20.60
2017,06,26,01,23,20.60
2017,06,26,01,24,20.60
2017,06,26,01,25,20.60
2017,06,26,01,26,20.60
2017,06,26,01,27,20.60
2017,06,26,01,28,20.60
2017,06,26,01,29,20.50
2017,06,26,01,30,20.50
2017,06,26,01,31,20.50
2017,06,26,01,32,20.50
2017,06,26,01,33,20.50
2017,06,26,01,34,20.50
2017,06,26,01,35,20.50
2017,06,26,01,36,20.50
2017,06,26,01,37,20.40
2017,06,26,01,38,20.40
2017,06,26,01,39,20.40
2017,06,26,01,40,20.40
2017,06,26,01,41,20.40
2017,06,26,01,42,20.40
2017,06,26,01,43,20.40
2017,06,26,01,44,20.40
2017,06,26,01,45,20.40
2017,06,26,01,46,20.40
2017,06,26,01,47,20.40
2017,06,26,01,48,20.40
2017,06,26,01,49,20.30
2017,06,26,01,50,20.30
2017,06,26,01,51,20.30
2017,06,26,01,52,20.30
2017,06,26,01,53,20.30
2017,06,26,01,54,20.30
2017,06,26,01,55,20.30
2017,06,26,01,56,20.30
2017,06,26,01,57,20.30
2017,06,26,01,58,20.30
2017,06,26,01,59,20.30
2017,06,26,02,00,20.30
2017,06,26,02,01,20.30
2017,06,26,02,02,20.30
2017,06,26,02,03,20.30
2017,06,26,02,04,20.20
2017,06,26,02,05,20.20
2017,06,26,02,06,20.20
2017,06,26,02,07,20.20
2017,06,26,02,08,20.10
2017,06,26,02,09,20.10
2017,06,26,02,10,20.10
2017,06,26,02,11,20.10
2017,06,26,02,12,20.10
2017,06,26,02,13,20.00
2017,06,26,02,14,20.00
2017,06,26,02,15,20.00
2017,06,26,02,16,19.90
2017,06,26,02,17,19.90
2017,06,26,02,18,19.90
2017,06,26,02,19,19.90
2017,06,26,02,20,19.90
2017,06,26,02,21,19.90
2017,06,26,02,22,19.90
2017,06,26,02,23,19.90
2017,06,26,02,24,19.80
2017,06,26,02,25,19.80
2017,06,26,02,26,19.80
2017,06,26,02,27,19.80
2017,06,26,02,28,19.80
2017,06,26,02,29,19.80
2017,06,26,02,30,19.80
2017,06,26,02,31,19.80
2017,06,26,02,32,19.80
2017,06,26,02,33,19.80
2017,06,26,02,34,19.80
2017,06,26,02,35,19.80
2017,06,26,02,36,19.70
2017,06,26,02,37,19.70
2017,06,26,02,38,19.70
2017,06,26,02,39,19.70
2017,06,26,02,40,19.70
2017,06,26,02,41,19.70
2017,06,26,02,42,19.70
2017,06,26,02,43,19.70
2017,06,26,02,44,19.70
2017,06,26,02,45,19.70
2017,06,26,02,46,19.70
2017,06,26,02,47,19.70
2017,06,26,02,48,19.70
2017,06,26,02,49,19.70
2017,06,26,02,50,19.60
2017,06,26,02,51,19.60
2017,06,26,02,52,19.60
2017,06,26,02,53,19.60
2017,06,26,02,54,19.60
2017,06,26,02,55,19.60
2017,06,26,02,56,19.60
2017,06,26,02,57,19.60
2017,06,26,02,58,19.60
2017,06,26,02,59,19.60
2017,06,26,03,00,19.50
2017,06,26,03,01,19.50
2017,06,26,03,02,19.50
2017,06,26,03,03,19.50
2017,06,26,03,04,19.50
2017,06,26,03,05,19.50
2017,06,26,03,06,19.40
2017,06,26,03,07,19.40
2017,06,26,03,08,19.40
2017,06,26,03,09,19.40
2017,06,26,03,10,19.40
2017,06,26,03,11,19.30
2017,06,26,03,12,19.30
2017,06,26,03,13,19.30
2017,06,26,03,14,19.30
2017,06,26,03,15,19.30
2017,06,26,03,16,19.20
2017,06,26,03,17,19.20
2017,06,26,03,18,19.20
2017,06,26,03,19,19.20
2017,06,26,03,20,19.20
2017,06,26,03,21,19.20
2017,06,26,03,22,19.10
2017,06,26,03,23,19.10
2017,06,26,03,24,19.10
2017,06,26,03,25,19.10
2017,06,26,03,26,19.10
2017,06,26,03,27,19.00
2017,06,26,03,28,19.00
2017,06,26,03,29,19.00
2017,06,26,03,30,19.00
2017,06,26,03,31,19.00
2017,06,26,03,32,19.00
2017,06,26,03,33,19.00
2017,06,26,03,34,19.10
2017,06,26,03,35,19.10
2017,06,26,03,36,19.10
2017,06,26,03,37,19.10
2017,06,26,03,38,19.10
2017,06,26,03,39,19.10
2017,06,26,03,40,19.10
2017,06,26,03,41,19.10
2017,06,26,03,42,19.10
2017,06,26,03,43,19.00
2017,06,26,03,44,19.00
2017,06,26,03,45,19.00
2017,06,26,03,46,19.00
2017,06,26,03,47,19.00
2017,06,26,03,48,19.00
2017,06,26,03,49,19.00
2017,06,26,03,50,19.00
2017,06,26,03,51,18.90
2017,06,26,03,52,18.90
2017,06,26,03,53,18.90
2017,06,26,03,54,18.90
2017,06,26,03,55,18.90
2017,06,26,03,56,18.90
2017,06,26,03,57,18.90
2017,06,26,03,58,18.90
2017,06,26,03,59,18.90
2017,06,26,04,00,18.90
2017,06,26,04,01,18.90
2017,06,26,04,02,18.90
2017,06,26,04,03,18.90
2017,06,26,04,04,18.90
2017,06,26,04,05,18.90
2017,06,26,04,06,18.90
2017,06,26,04,07,18.90
2017,06,26,04,08,18.80
2017,06,26,04,09,18.80
2017,06,26,04,10,18.80
2017,06,26,04,11,18.80
2017,06,26,04,12,18.80
2017,06,26,04,13,18.80
2017,06,26,04,14,18.80
2017,06,26,04,15,18.80
2017,06,26,04,16,18.80
2017,06,26,04,17,18.70
2017,06,26,04,18,18.70
2017,06,26,04,19,18.70
2017,06,26,04,20,18.70
2017,06,26,04,21,18.70
2017,06,26,04,22,18.70
2017,06,26,04,23,18.70
2017,06,26,04,24,18.70
2017,06,26,04,25,18.70
2017,06,26,04,26,18.70
2017,06,26,04,27,18.60
2017,06,26,04,28,18.60
2017,06,26,04,29,18.60
2017,06,26,04,30,18.60
2017,06,26,04,31,18.60
2017,06,26,04,32,18.60
2017,06,26,04,33,18.60
2017,06,26,04,34,18.60
2017,06,26,04,35,18.50
2017,06,26,04,36,18.60
2017,06,26,04,37,18.50
2017,06,26,04,38,18.50
2017,06,26,04,39,18.50
2017,06,26,04,40,18.50
2017,06,26,04,41,18.50
2017,06,26,04,42,18.50
2017,06,26,04,43,18.50
2017,06,26,04,44,18.50
2017,06,26,04,45,18.50
2017,06,26,04,46,18.50
2017,06,26,04,47,18.60
2017,06,26,04,48,18.60
2017,06,26,04,49,18.60
2017,06,26,04,50,18.70
2017,06,26,04,51,18.70
2017,06,26,04,52,18.70
2017,06,26,04,53,18.70
2017,06,26,04,54,18.70
2017,06,26,04,55,18.70
2017,06,26,04,56,18.70
2017,06,26,04,57,18.70
2017,06,26,04,58,18.70
2017,06,26,04,59,18.60
2017,06,26,05,00,18.60
2017,06,26,05,01,18.60
2017,06,26,05,02,18.50
2017,06,26,05,03,18.50
2017,06,26,05,04,18.50
2017,06,26,05,05,18.40
2017,06,26,05,06,18.40
2017,06,26,05,07,18.40
2017,06,26,05,08,18.30
2017,06,26,05,09,18.30
2017,06,26,05,10,18.30
2017,06,26,05,11,18.30
2017,06,26,05,12,18.20
2017,06,26,05,13,18.20
2017,06,26,05,14,18.20
2017,06,26,05,15,18.20
2017,06,26,05,16,18.20
2017,06,26,05,17,18.20
2017,06,26,05,18,18.10
2017,06,26,05,19,18.10
2017,06,26,05,20,18.10
2017,06,26,05,21,18.10
2017,06,26,05,22,18.10
2017,06,26,05,23,18.10
2017,06,26,05,24,18.00
2017,06,26,05,25,18.00
2017,06,26,05,26,18.00
2017,06,26,05,27,17.90
2017,06,26,05,28,17.90
2017,06,26,05,29,17.90
2017,06,26,05,30,17.90
2017,06,26,05,31,17.90
2017,06,26,05,32,17.80
2017,06,26,05,33,17.80
2017,06,26,05,34,17.80
2017,06,26,05,35,17.70
2017,06,26,05,36,17.70
2017,06,26,05,37,17.70
2017,06,26,05,38,17.70
2017,06,26,05,39,17.60
2017,06,26,05,40,17.60
2017,06,26,05,41,17.60
2017,06,26,05,42,17.50
2017,06,26,05,43,17.50
2017,06,26,05,44,17.50
2017,06,26,05,45,17.40
2017,06,26,05,46,17.40
2017,06,26,05,47,17.40
2017,06,26,05,48,17.30
2017,06,26,05,49,17.30
2017,06,26,05,50,17.20
2017,06,26,05,51,17.20
2017,06,26,05,52,17.20
2017,06,26,05,53,17.10
2017,06,26,05,54,17.10
2017,06,26,05,55,17.10
2017,06,26,05,56,17.00
2017,06,26,05,57,17.00
2017,06,26,05,58,16.90
2017,06,26,05,59,16.90
2017,06,26,06,00,16.90
2017,06,26,06,01,16.90
2017,06,26,06,02,16.90
2017,06,26,06,03,16.80
2017,06,26,06,04,16.80
2017,06,26,06,05,16.80
2017,06,26,06,06,16.80
2017,06,26,06,07,16.80
2017,06,26,06,08,16.80
2017,06,26,06,09,16.80
2017,06,26,06,10,16.80
2017,06,26,06,11,16.90
2017,06,26,06,12,16.90
2017,06,26,06,13,16.90
2017,06,26,06,14,16.90
2017,06,26,06,15,17.00
2017,06,26,06,16,17.00
2017,06,26,06,17,17.00
2017,06,26,06,18,17.00
2017,06,26,06,19,17.00
2017,06,26,06,20,17.00
2017,06,26,06,21,17.00
2017,06,26,06,22,17.10
2017,06,26,06,23,17.10
2017,06,26,06,24,17.10
2017,06,26,06,25,17.10
2017,06,26,06,26,17.10
2017,06,26,06,27,17.10
2017,06,26,06,28,17.10
2017,06,26,06,29,17.10
2017,06,26,06,30,17.10
2017,06,26,06,31,17.10
2017,06,26,06,32,17.10
2017,06,26,06,33,17.10
2017,06,26,06,34,17.10
2017,06,26,06,35,17.10
2017,06,26,06,36,17.10
2017,06,26,06,37,17.10
2017,06,26,06,38,17.10
2017,06,26,06,39,17.10
2017,06,26,06,40,17.10
2017,06,26,06,41,17.00
2017,06,26,06,42,17.00
2017,06,26,06,43,17.00
2017,06,26,06,44,17.00
2017,06,26,06,45,16.90
2017,06,26,06,46,16.90
2017,06,26,06,47,16.90
2017,06,26,06,48,16.90
2017,06,26,06,49,16.90
2017,06,26,06,50,16.90
2017,06,26,06,51,16.90
2017,06,26,06,52,16.90
2017,06,26,06,53,16.90
2017,06,26,06,54,16.80
2017,06,26,06,55,16.80
2017,06,26,06,56,16.80
2017,06,26,06,57,16.80
2017,06,26,06,58,16.80
2017,06,26,06,59,16.80
2017,06,26,07,00,16.80
2017,06,26,07,01,16.80
2017,06,26,07,02,16.80
2017,06,26,07,03,16.80
2017,06,26,07,04,16.80
2017,06,26,07,05,16.80
2017,06,26,07,06,16.80
2017,06,26,07,07,16.80
2017,06,26,07,08,16.80
2017,06,26,07,09,16.80
2017,06,26,07,10,16.80
2017,06,26,07,11,16.80
2017,06,26,07,12,16.80
2017,06,26,07,13,16.80
2017,06,26,07,14,16.80
2017,06,26,07,15,16.80
2017,06,26,07,16,16.80
2017,06,26,07,17,16.80
2017,06,26,07,18,16.80
2017,06,26,07,19,16.80
2017,06,26,07,20,16.80
2017,06,26,07,21,16.80
2017,06,26,07,22,16.80
2017,06,26,07,23,16.80
2017,06,26,07,24,16.80
2017,06,26,07,25,16.80
2017,06,26,07,26,16.80
2017,06,26,07,27,16.80
2017,06,26,07,28,16.80
2017,06,26,07,29,16.80
2017,06,26,07,30,16.80
2017,06,26,07,31,16.80
2017,06,26,07,32,16.80
2017,06,26,07,33,16.80
2017,06,26,07,34,16.80
2017,06,26,07,35,16.70
2017,06,26,07,36,16.70
2017,06,26,07,37,16.70
2017,06,26,07,38,16.70
2017,06,26,07,39,16.70
2017,06,26,07,40,16.70
2017,06,26,07,41,16.70
2017,06,26,07,42,16.70
2017,06,26,07,43,16.70
2017,06,26,07,44,16.70
2017,06,26,07,45,16.70
2017,06,26,07,46,16.70
2017,06,26,07,47,16.70
2017,06,26,07,48,16.70
2017,06,26,07,49,16.70
2017,06,26,07,50,16.70
2017,06,26,07,51,16.70
2017,06,26,07,52,16.70
2017,06,26,07,53,16.70
2017,06,26,07,54,16.70
2017,06,26,07,55,16.70
2017,06,26,07,56,16.70
2017,06,26,07,57,16.70
2017,06,26,07,58,16.70
2017,06,26,07,59,16.70
2017,06,26,08,00,16.70
2017,06,26,08,01,16.80
2017,06,26,08,02,16.80
2017,06,26,08,03,16.80
2017,06,26,08,04,16.80
2017,06,26,08,05,16.80
2017,06,26,08,06,16.80
2017,06,26,08,07,16.90
2017,06,26,08,08,16.90
2017,06,26,08,09,16.90
2017,06,26,08,10,16.90
2017,06,26,08,11,17.00
2017,06,26,08,12,17.00
2017,06,26,08,13,17.00
2017,06,26,08,14,17.10
2017,06,26,08,15,17.10
2017,06,26,08,16,17.10
2017,06,26,08,17,17.10
2017,06,26,08,18,17.10
2017,06,26,08,19,17.10
2017,06,26,08,20,17.20
2017,06,26,08,21,17.20
2017,06,26,08,22,17.20
2017,06,26,08,23,17.20
2017,06,26,08,24,17.20
2017,06,26,08,25,17.20
2017,06,26,08,26,17.20
2017,06,26,08,27,17.20
2017,06,26,08,28,17.20
2017,06,26,08,29,17.20
2017,06,26,08,30,17.30
2017,06,26,08,31,17.30
2017,06,26,08,32,17.30
2017,06,26,08,33,17.30
2017,06,26,08,34,17.40
2017,06,26,08,35,17.40
2017,06,26,08,36,17.40
2017,06,26,08,37,17.50
2017,06,26,08,38,17.50
2017,06,26,08,39,17.60
2017,06,26,08,40,17.60
2017,06,26,08,41,17.70
2017,06,26,08,42,17.70
2017,06,26,08,43,17.70
2017,06,26,08,44,17.80
2017,06,26,08,45,17.90
2017,06,26,08,46,17.90
2017,06,26,08,47,17.90
2017,06,26,08,48,18.00
2017,06,26,08,49,18.00
2017,06,26,08,50,18.10
2017,06,26,08,51,18.10
2017,06,26,08,52,18.10
2017,06,26,08,53,18.20
2017,06,26,08,54,18.20
2017,06,26,08,55,18.20
2017,06,26,08,56,18.30
2017,06,26,08,57,18.30
2017,06,26,08,58,18.30
2017,06,26,08,59,18.40
2017,06,26,09,00,18.40
2017,06,26,09,01,18.50
2017,06,26,09,02,18.50
2017,06,26,09,03,18.50
2017,06,26,09,04,18.60
2017,06,26,09,05,18.60
2017,06,26,09,06,18.60
2017,06,26,09,07,18.60
2017,06,26,09,08,18.60
2017,06,26,09,09,18.60
2017,06,26,09,10,18.70
2017,06,26,09,11,18.70
2017,06,26,09,12,18.70
2017,06,26,09,13,18.70
2017,06,26,09,14,18.70
2017,06,26,09,15,18.80
2017,06,26,09,16,18.80
2017,06,26,09,17,18.80
2017,06,26,09,18,18.80
2017,06,26,09,19,18.80
2017,06,26,09,20,18.80
2017,06,26,09,21,18.80
2017,06,26,09,22,18.80
2017,06,26,09,23,18.80
2017,06,26,09,24,18.90
2017,06,26,09,25,18.90
2017,06,26,09,26,18.90
2017,06,26,09,27,18.90
2017,06,26,09,28,18.90
2017,06,26,09,29,19.00
2017,06,26,09,30,19.00
2017,06,26,09,31,19.10
2017,06,26,09,32,19.10
2017,06,26,09,33,19.20
2017,06,26,09,34,19.30
2017,06,26,09,35,19.30
2017,06,26,09,36,19.40
2017,06,26,09,37,19.40
2017,06,26,09,38,19.50
2017,06,26,09,39,19.60
2017,06,26,09,40,19.70
2017,06,26,09,41,19.70
2017,06,26,09,42,19.80
2017,06,26,09,43,19.90
2017,06,26,09,44,20.00
2017,06,26,09,45,20.10
2017,06,26,09,46,20.20
2017,06,26,09,47,20.30
2017,06,26,09,48,20.40
2017,06,26,09,49,20.50
2017,06,26,09,50,20.60
2017,06,26,09,51,20.70
2017,06,26,09,52,20.80
2017,06,26,09,53,20.80
2017,06,26,09,54,20.90
2017,06,26,09,55,20.90
2017,06,26,09,56,21.00
2017,06,26,09,57,21.10
2017,06,26,09,58,21.20
2017,06,26,09,59,21.30
2017,06,26,10,00,21.30
2017,06,26,10,01,21.40
2017,06,26,10,02,21.50
2017,06,26,10,03,21.50
2017,06,26,10,04,21.60
2017,06,26,10,05,21.60
2017,06,26,10,06,21.60
2017,06,26,10,07,21.60
2017,06,26,10,08,21.60
2017,06,26,10,09,21.50
2017,06,26,10,10,21.50
2017,06,26,10,11,21.40
2017,06,26,10,12,21.40
2017,06,26,10,13,21.40
2017,06,26,10,14,21.40
2017,06,26,10,15,21.40
2017,06,26,10,16,21.40
2017,06,26,10,17,21.30
2017,06,26,10,18,21.30
2017,06,26,10,19,21.40
2017,06,26,10,20,21.40
2017,06,26,10,21,21.40
2017,06,26,10,22,21.40
2017,06,26,10,23,21.40
2017,06,26,10,24,21.40
2017,06,26,10,25,21.40
2017,06,26,10,26,21.40
2017,06,26,10,27,21.40
2017,06,26,10,28,21.40
2017,06,26,10,29,21.40
2017,06,26,10,30,21.40
2017,06,26,10,31,21.40
2017,06,26,10,32,21.40
2017,06,26,10,33,21.40
2017,06,26,10,34,21.30
2017,06,26,10,35,21.30
2017,06,26,10,36,21.30
2017,06,26,10,37,21.30
2017,06,26,10,38,21.30
2017,06,26,10,39,21.30
2017,06,26,10,40,21.30
2017,06,26,10,41,21.30
2017,06,26,10,42,21.30
2017,06,26,10,43,21.30
2017,06,26,10,44,21.30
2017,06,26,10,45,21.30
2017,06,26,10,46,21.40
2017,06,26,10,47,21.40
2017,06,26,10,48,21.50
2017,06,26,10,49,21.50
2017,06,26,10,50,21.60
2017,06,26,10,51,21.60
2017,06,26,10,52,21.70
2017,06,26,10,53,21.80
2017,06,26,10,54,21.80
2017,06,26,10,55,21.90
2017,06,26,10,56,21.90
2017,06,26,10,57,22.00
2017,06,26,10,58,22.10
2017,06,26,10,59,22.20
2017,06,26,11,00,22.20
2017,06,26,11,01,22.30
2017,06,26,11,02,22.30
2017,06,26,11,03,22.30
2017,06,26,11,04,22.30
2017,06,26,11,05,22.40
2017,06,26,11,06,22.40
2017,06,26,11,07,22.50
2017,06,26,11,08,22.60
2017,06,26,11,09,22.60
2017,06,26,11,10,22.70
2017,06,26,11,11,22.70
2017,06,26,11,12,22.80
2017,06,26,11,13,22.80
2017,06,26,11,14,22.80
2017,06,26,11,15,22.80
2017,06,26,11,16,22.80
2017,06,26,11,17,22.70
2017,06,26,11,18,22.70
2017,06,26,11,19,22.70
2017,06,26,11,20,22.70
2017,06,26,11,21,22.80
2017,06,26,11,22,22.80
2017,06,26,11,23,22.80
2017,06,26,11,24,22.80
2017,06,26,11,25,22.80
2017,06,26,11,26,22.90
2017,06,26,11,27,22.90
2017,06,26,11,28,22.90
2017,06,26,11,29,22.90
2017,06,26,11,30,23.00
2017,06,26,11,31,23.00
2017,06,26,11,32,23.00
2017,06,26,11,33,23.00
2017,06,26,11,34,23.00
2017,06,26,11,35,23.00
2017,06,26,11,36,23.00
2017,06,26,11,37,23.10
2017,06,26,11,38,23.10
2017,06,26,11,39,23.10
2017,06,26,11,40,23.20
2017,06,26,11,41,23.20
2017,06,26,11,42,23.30
2017,06,26,11,43,23.30
2017,06,26,11,44,23.30
2017,06,26,11,45,23.30
2017,06,26,11,46,23.30
2017,06,26,11,47,23.30
2017,06,26,11,48,23.40
2017,06,26,11,49,23.40
2017,06,26,11,50,23.40
2017,06,26,11,51,23.40
2017,06,26,11,52,23.40
2017,06,26,11,53,23.50
2017,06,26,11,54,23.50
2017,06,26,11,55,23.50
2017,06,26,11,56,23.60
2017,06,26,11,57,23.50
2017,06,26,11,58,23.50
2017,06,26,11,59,23.50
2017,06,26,12,00,23.60
2017,06,26,12,01,23.60
2017,06,26,12,02,23.60
2017,06,26,12,03,23.60
2017,06,26,12,04,23.60
2017,06,26,12,05,23.50
2017,06,26,12,06,23.50
2017,06,26,12,07,23.50
2017,06,26,12,08,23.50
2017,06,26,12,09,23.60
2017,06,26,12,10,23.60
2017,06,26,12,11,23.60
2017,06,26,12,12,23.50
2017,06,26,12,13,23.60
2017,06,26,12,14,23.60
2017,06,26,12,15,23.60
2017,06,26,12,16,23.60
2017,06,26,12,17,23.60
2017,06,26,12,18,23.60
2017,06,26,12,19,23.60
2017,06,26,12,20,23.50
2017,06,26,12,21,23.50
2017,06,26,12,22,23.40
2017,06,26,12,23,23.40
2017,06,26,12,24,23.30
2017,06,26,12,25,23.20
2017,06,26,12,26,23.20
2017,06,26,12,27,23.10
2017,06,26,12,28,23.10
2017,06,26,12,29,23.10
2017,06,26,12,30,23.10
2017,06,26,12,31,23.10
2017,06,26,12,32,23.10
2017,06,26,12,33,23.20
2017,06,26,12,34,23.20
2017,06,26,12,35,23.20
2017,06,26,12,36,23.30
2017,06,26,12,37,23.30
2017,06,26,12,38,23.30
2017,06,26,12,39,23.40
2017,06,26,12,40,23.40
2017,06,26,12,41,23.50
2017,06,26,12,42,23.50
2017,06,26,12,43,23.50
2017,06,26,12,44,23.60
2017,06,26,12,45,23.60
2017,06,26,12,46,23.60
2017,06,26,12,47,23.60
2017,06,26,12,48,23.60
2017,06,26,12,49,23.60
2017,06,26,12,50,23.50
2017,06,26,12,51,23.50
2017,06,26,12,52,23.40
2017,06,26,12,53,23.30
2017,06,26,12,54,23.30
2017,06,26,12,55,23.20
2017,06,26,12,56,23.10
2017,06,26,12,57,23.00
2017,06,26,12,58,22.90
2017,06,26,12,59,22.80
2017,06,26,13,00,22.70
2017,06,26,13,01,22.70
2017,06,26,13,02,22.60
2017,06,26,13,03,22.60
2017,06,26,13,04,22.60
2017,06,26,13,05,22.60
2017,06,26,13,06,22.60
2017,06,26,13,07,22.60
2017,06,26,13,08,22.70
2017,06,26,13,09,22.70
2017,06,26,13,10,22.70
2017,06,26,13,11,22.70
2017,06,26,13,12,22.70
2017,06,26,13,13,22.70
2017,06,26,13,14,22.70
2017,06,26,13,15,22.70
2017,06,26,13,16,22.70
2017,06,26,13,17,22.70
2017,06,26,13,18,22.60
2017,06,26,13,19,22.60
2017,06,26,13,20,22.60
2017,06,26,13,21,22.50
2017,06,26,13,22,22.50
2017,06,26,13,23,22.40
2017,06,26,13,24,22.40
2017,06,26,13,25,22.30
2017,06,26,13,26,22.30
2017,06,26,13,27,22.30
2017,06,26,13,28,22.30
2017,06,26,13,29,22.30
2017,06,26,13,30,22.40
2017,06,26,13,31,22.40
2017,06,26,13,32,22.40
2017,06,26,13,33,22.40
2017,06,26,13,34,22.40
2017,06,26,13,35,22.50
2017,06,26,13,36,22.50
2017,06,26,13,37,22.60
2017,06,26,13,38,22.60
2017,06,26,13,39,22.70
2017,06,26,13,40,22.80
2017,06,26,13,41,22.80
2017,06,26,13,42,22.90
2017,06,26,13,43,22.90
2017,06,26,13,44,22.80
2017,06,26,13,45,22.80
2017,06,26,13,46,22.80
2017,06,26,13,47,22.80
2017,06,26,13,48,22.80
2017,06,26,13,49,22.80
2017,06,26,13,50,22.90
2017,06,26,13,51,22.90
2017,06,26,13,52,22.90
2017,06,26,13,53,22.90
2017,06,26,13,54,23.00
2017,06,26,13,55,23.10
2017,06,26,13,56,23.10
2017,06,26,13,57,23.10
2017,06,26,13,58,23.10
2017,06,26,13,59,23.00
2017,06,26,14,00,22.90
2017,06,26,14,01,22.90
2017,06,26,14,02,23.00
2017,06,26,14,03,22.90
2017,06,26,14,04,22.90
2017,06,26,14,05,23.00
2017,06,26,14,06,23.00
2017,06,26,14,07,23.10
2017,06,26,14,08,23.20
2017,06,26,14,09,23.20
2017,06,26,14,10,23.30
2017,06,26,14,11,23.30
2017,06,26,14,12,23.30
2017,06,26,14,13,23.30
2017,06,26,14,14,23.30
2017,06,26,14,15,23.30
2017,06,26,14,16,23.20
2017,06,26,14,17,23.20
2017,06,26,14,18,23.20
2017,06,26,14,19,23.20
2017,06,26,14,20,23.20
2017,06,26,14,21,23.30
2017,06,26,14,22,23.30
2017,06,26,14,23,23.40
2017,06,26,14,24,23.40
2017,06,26,14,25,23.40
2017,06,26,14,26,23.50
2017,06,26,14,27,23.50
2017,06,26,14,28,23.60
2017,06,26,14,29,23.70
2017,06,26,14,30,23.80
2017,06,26,14,31,23.90
2017,06,26,14,32,23.90
2017,06,26,14,33,24.00
2017,06,26,14,34,24.00
2017,06,26,14,35,24.10
2017,06,26,14,36,24.10
2017,06,26,14,37,24.10
2017,06,26,14,38,24.10
2017,06,26,14,39,24.10
2017,06,26,14,40,24.10
2017,06,26,14,41,24.20
2017,06,26,14,42,24.20
2017,06,26,14,43,24.30
2017,06,26,14,44,24.30
2017,06,26,14,45,24.40
2017,06,26,14,46,24.50
2017,06,26,14,47,24.60
2017,06,26,14,48,24.70
2017,06,26,14,49,24.70
2017,06,26,14,50,24.80
2017,06,26,14,51,24.80
2017,06,26,14,52,24.90
2017,06,26,14,53,24.90
2017,06,26,14,54,24.90
2017,06,26,14,55,24.90
2017,06,26,14,56,25.00
2017,06,26,14,57,25.00
2017,06,26,14,58,25.10
2017,06,26,14,59,25.20
2017,06,26,15,00,25.30
2017,06,26,15,01,25.40
2017,06,26,15,02,25.40
2017,06,26,15,03,25.50
2017,06,26,15,04,25.60
2017,06,26,15,05,25.70
2017,06,26,15,06,25.80
2017,06,26,15,07,25.90
2017,06,26,15,08,25.90
2017,06,26,15,09,25.90
2017,06,26,15,10,26.00
2017,06,26,15,11,26.10
2017,06,26,15,12,26.20
2017,06,26,15,13,26.30
2017,06,26,15,14,26.40
2017,06,26,15,15,26.60
2017,06,26,15,16,26.70
2017,06,26,15,17,26.80
2017,06,26,15,18,27.00
2017,06,26,15,19,27.10
2017,06,26,15,20,27.10
2017,06,26,15,21,27.10
2017,06,26,15,22,27.20
2017,06,26,15,23,27.30
2017,06,26,15,24,27.40
2017,06,26,15,25,27.40
2017,06,26,15,26,27.50
2017,06,26,15,27,27.50
2017,06,26,15,28,27.60
2017,06,26,15,29,27.60
2017,06,26,15,30,27.60
2017,06,26,15,31,27.50
2017,06,26,15,32,27.40
2017,06,26,15,33,27.40
2017,06,26,15,34,27.20
2017,06,26,15,35,27.20
2017,06,26,15,36,27.20
2017,06,26,15,37,27.30
2017,06,26,15,38,27.30
2017,06,26,15,39,27.40
2017,06,26,15,40,27.40
2017,06,26,15,41,27.40
2017,06,26,15,42,27.50
2017,06,26,15,43,27.60
2017,06,26,15,44,27.70
2017,06,26,15,45,27.80
2017,06,26,15,46,27.90
2017,06,26,15,47,28.00
2017,06,26,15,48,27.90
2017,06,26,15,49,27.80
2017,06,26,15,50,27.80
2017,06,26,15,51,27.80
2017,06,26,15,52,27.80
2017,06,26,15,53,27.80
2017,06,26,15,54,27.90
2017,06,26,15,55,28.00
2017,06,26,15,56,28.10
2017,06,26,15,57,28.20
2017,06,26,15,58,28.30
2017,06,26,15,59,28.40
2017,06,26,16,00,28.40
2017,06,26,16,01,28.40
2017,06,26,16,02,28.40
2017,06,26,16,03,28.40
2017,06,26,16,04,28.30
2017,06,26,16,05,28.30
2017,06,26,16,06,28.20
2017,06,26,16,07,28.20
2017,06,26,16,08,28.10
2017,06,26,16,09,28.00
2017,06,26,16,10,28.00
2017,06,26,16,11,27.90
2017,06,26,16,12,27.80
2017,06,26,16,13,27.80
2017,06,26,16,14,27.70
2017,06,26,16,15,27.60
2017,06,26,16,16,27.60
2017,06,26,16,17,27.60
2017,06,26,16,18,27.60
2017,06,26,16,19,27.60
2017,06,26,16,20,27.60
2017,06,26,16,21,27.60
2017,06,26,16,22,27.60
2017,06,26,16,23,27.60
2017,06,26,16,24,27.60
2017,06,26,16,25,27.60
2017,06,26,16,26,27.60
2017,06,26,16,27,27.50
2017,06,26,16,28,27.40
2017,06,26,16,29,27.30
2017,06,26,16,30,27.30
2017,06,26,16,31,27.30
2017,06,26,16,32,27.30
2017,06,26,16,33,27.30
2017,06,26,16,34,27.20
2017,06,26,16,35,27.20
2017,06,26,16,36,27.20
2017,06,26,16,37,27.20
2017,06,26,16,38,27.20
2017,06,26,16,39,27.10
2017,06,26,16,40,27.10
2017,06,26,16,41,26.90
2017,06,26,16,42,26.70
2017,06,26,16,43,26.60
2017,06,26,16,44,26.40
2017,06,26,16,45,26.30
2017,06,26,16,46,26.20
2017,06,26,16,47,26.20
2017,06,26,16,48,26.10
2017,06,26,16,49,26.00
2017,06,26,16,50,26.00
2017,06,26,16,51,25.90
2017,06,26,16,52,25.90
2017,06,26,16,53,25.90
2017,06,26,16,54,25.90
2017,06,26,16,55,25.90
2017,06,26,16,56,25.90
2017,06,26,16,57,26.00
2017,06,26,16,58,26.10
2017,06,26,16,59,26.10
2017,06,26,17,00,26.10
2017,06,26,17,01,26.10
2017,06,26,17,02,26.20
2017,06,26,17,03,26.20
2017,06,26,17,04,26.20
2017,06,26,17,05,26.20
2017,06,26,17,06,26.30
2017,06,26,17,07,26.30
2017,06,26,17,08,26.40
2017,06,26,17,09,26.40
2017,06,26,17,10,26.50
2017,06,26,17,11,26.50
2017,06,26,17,12,26.60
2017,06,26,17,13,26.70
2017,06,26,17,14,26.70
2017,06,26,17,15,26.80
2017,06,26,17,16,26.80
2017,06,26,17,17,26.90
2017,06,26,17,18,26.80
2017,06,26,17,19,26.80